Location: Newark
(9.4667°S, 159.8167°E)
Time: 08:03:49
(UTC+00:00)

Explorer 7 - Pass Details

Date: 21 November 2019
Orbit: 485 x 680 km, 50.3° (Epoch: 13 December)

Event Time Altitude Azimuth Distance (km) Brightness Sun altitude
Rises 08:28:21 0° 209° (SSW) 2,978 11.4 -15.6°
Reaches altitude 10° 08:30:44 10° 203° (SSW) 2,084 10.4 -16.1°
Maximum altitude 08:35:25 48° 128° (SE) 880 7.6 -17.2°
Enters shadow 08:37:13 32° 76° (ENE) 1,147 7.9 -17.6°
